Aérodrome :
LOGIN :

S'inscrire | Disclaimer

   EN    FR    IT 

 










Légende :    VFR   VFR Marginal   IFR   IFR Intensif   IFR Très Intensif
Visi : 
Plafond : 
>= 8 km
>= 3000ft
5 à 8 km
1000 à 3000 ft
1500m à 5 km
500 à 1000 ft
800 à 1500m
200 à 500 ft
< 800m
< 200 ft
Symboles :   Orages  Brouillard  Fortes neiges  Fortes précipitations  Vent > 20 kt
SIGMETs :   Divers  Orages  Givrage  Turbulence  Onde Orograph.  Cendres Volcan.







- Altitude de l'aérodrome : 245 ft


ETHS - Fassberg

DERNIER METAR :
  • 191120Z 31008KT 9999 SCT045 SCT140 23/10 Q1013 BLU+

METARs EXPIRÉS :
  • 191020Z 28010KT 9999 SCT040 SCT070 22/12 Q1013 BLU+
  • 190920Z 30009KT 9999 SCT020 SCT030 BKN140 20/13 Q1013 BLU BLU BECMG BLU+

TAF AMD TAF ETHS
Valide du 19 à 08h jusqu'au 19 à 17h UTC


190930Z 1908/1917 23005KT 9999 NSW SCT030 BKN130
PROB30 1908/1916 27010KT 5000 -SHRA BKN015 OVC030 CANCEL 1000
Pas de NOTAMs connus pour ce terrain.



MET'MAP, la Météo Aéronautique d'un coup d'oeil ! - Copyright ORBIFLY Décembre 2007 - Disclaimer

ORBIFLY MET'MAP TEAM :

Programmation & Développement : Alexandra Zaïnal
Conception & Développement : Baudouin d'Aumeries
Co-Programmation & Développement : Marc-Olivier Méhu
Soutien technique & logistique : Manuel Goepfert

Contact : metmap@orbifly.com




SOURCES & CREDITS :

   NOAA